Location: Krasnoyarskiy Pitomnik
(51.1333°N, 71.6167°E)
Time: 10:09:45
(UTC+00:00)

Cosmos 1825 - Pass Details

Date: 22 October 2021
Orbit: 501 x 504 km, 82.5° (Epoch: 06 December)

Event Time Altitude Azimuth Distance (km) Brightness Sun altitude
Rises 13:48:25 0° 358° (N) 2,612 5.8 -16.6°
Reaches altitude 10° 13:50:47 10° 10° (N) 1,722 4.8 -17.0°
Enters shadow 13:52:43 22° 36° (NE) 1,146 3.6 -17.3°
